Weather Roundup
Issued by NWS Sterling, VA

Current Version | Previous Version | Text Only | Print | Product List | Glossary On
Versions: 1 2 3 4 5 6 7 8 9 10 11 12 13 14 15 16 17 18 19 20 21 22 23 24 25 26 27 28 29 30 31 32 33 34 35 36 37 38 39 40 41 42 43 44 45 46 47 48 49 50
509
NZUS51 KLWX 191711
HRRLWX

HOURLY OBSERVATIONS AROUND THE LWX CWA
100 PM EDT THU SEP 19 2019

Note: "FAIR" indicates few or no clouds below 12,000 feet
with no significant weather and/or obstructions to visibility.

 * =Non NWS site. Station does not report significant weather
    and/or obstructions to visibility.

...DOWNTOWN AREAS...

CITY           SKY/WX    TMP DP  RH WIND       PRES   REMARKS
WASHINGTON NAT PTSUNNY   71  43  36 N7        30.35F
MD SCIENCE CTR   N/A     71  39  31 MISG      30.35F


...WASHINGTON SUBURBS...

CITY           SKY/WX    TMP DP  RH WIND       PRES   REMARKS
DULLES         PTSUNNY   70  48  45 VRB6      30.34F
MANASSAS*      PTSUNNY   67  48  50 E5        30.35F
LEESBURG*      FAIR      68  48  49 SE6       30.35F
GAITHERSBURG*  FAIR      70  48  45 E3        30.36S
FT BELVOIR     FAIR      70  41  34 SE3       30.34F
QUANTICO       FAIR      71  44  37 NE6       30.35F
ANDREWS AFB    FAIR      69  36  30 E5        30.34F
COLLEGE PARK*  FAIR      70  36  29 SE8       30.34F

...CENTRAL VIRGINIA...

CITY           SKY/WX    TMP DP  RH WIND       PRES   REMARKS
CULPEPER*      PTSUNNY   70  47  44 W10G21    30.34F
CHARLOTTESVILL FAIR      72  51  47 NE7       30.34F
WARRENTON*     FAIR      71  46  41 CALM      30.34F
ORANGE*        FAIR      68  48  49 E9        30.34F
GORDONSVILLE*  PTSUNNY   66  51  57 CALM      30.34S
STAFFORD*      FAIR      71  46  41 E7        30.38F
FREDERICKSBRG* FAIR      69  49  47 NE10      30.33F
LOUISA*        FAIR      65  47  52 E5        30.38S
ASHLAND        FAIR      71  46  40 NE7       30.34F
RICHMOND       PTSUNNY   72  47  40 E9        30.32F

...NORTHEAST/CENTRAL MARYLAND...

CITY           SKY/WX    TMP DP  RH WIND       PRES   REMARKS
BWI AIRPORT    PTSUNNY   69  41  36 E7G17     30.34F
ANNAPOLIS      FAIR      69  42  37 CALM      30.34F
MARTIN AIRPORT MOSUNNY   68  45  42 NE5       30.37F
ABERDEEN*      MOSUNNY   66  43  42 E9        30.35F
FREDERICK*     MOSUNNY   70  48  46 VRB3      30.35F

...SOUTHERN MARYLAND...

CITY           SKY/WX    TMP DP  RH WIND       PRES   REMARKS
PATUXENT RIVER PTSUNNY   69  47  45 E7        30.33F
ST MARYS CITY  CLOUDY    71  48  43 N7        30.33
LEONARDTOWN*   FAIR      66  50  55 E7        30.35F

...MARYLAND EASTERN SHORE...

CITY           SKY/WX    TMP DP  RH WIND       PRES   REMARKS
SALISBURY      CLOUDY    68  50  52 E9        30.32S
CAMBRIDGE*     SUNNY     70  48  46 VRB6G13   30.33F
OCEAN CITY     CLOUDY    69  51  52 N10       30.32F
BAY BRIDGE AP* FAIR      68  45  42 E3        30.34F
EASTON*        MOSUNNY   72  46  40 N6        30.37F

...SHENANDOAH VALLEY...

CITY           SKY/WX    TMP DP  RH WIND       PRES   REMARKS
MARTINSBURG    CLOUDY    70  48  45 VRB7      30.33F
HAGERSTOWN APT PTSUNNY   67  47  48 S6        30.34F
STAUNTON*      FAIR      69  47  44 S8        30.35F
WINCHESTER*    FAIR      64  48  55 S7        30.33F
FRONT ROYAL*   PTSUNNY   68  48  49 E9        30.33F
LURAY*         PTSUNNY   70  46  43 SE5       30.33S
NEW MARKET*    FAIR      68  48  48 SW5       30.32S
WAYNESBORO*    CLOUDY    65  50  58 E5        30.34F

...APPALACHIANS...

CITY           SKY/WX    TMP DP  RH WIND       PRES   REMARKS
PETERSBURG WV* PTSUNNY   68  49  50 SW6       30.32R
CUMBERLAND*    FAIR      71  49  45 SW10      30.35F
OAKLAND*       FAIR      61  46  59 S10G20    30.32S
HOT SPRINGS*   CLOUDY    54  52  94 CALM      30.38R
ELKINS         FAIR      71  47  42 VRB7      30.29F
BEDFORD PA*    PTSUNNY   66  47  51 S10       30.32F
JOHNSTOWN      FAIR      63  48  58 SE10      30.31F
ALTOONA        FAIR      66  49  54 VRB7      30.33F

...SOUTHERN PENNSYLVANIA/DELAWARE...

CITY           SKY/WX    TMP DP  RH WIND       PRES   REMARKS
YORK           FAIR      67  45  45 VRB3      30.34F
WILMINGTON     FAIR      67  45  45 CALM      30.35F

...MARINE OBSERVATIONS...

STATION/POSITION TIME  TEMP    WIND        PRES
                       AIR SEA DIR/SP/G
                 (UTC) (F)     (DEG/KT/KT) (MB)
THOMAS PT LIGHT  1700   62 75  320/  5/  7 1028.6F
COVE POINT       1630   64     360/  4/  7 1028.2F
BALT KEY BRIDGE  1630   63      90/ 11/ 13 1027.9F
LEWISETTA        1618   64 72   90/  9/ 11 1027.5
SOLOMONS ISLAND  1630   64 76  120/  5/  7 1027.2F
PINEY POINT      1630          110/  6/  8   N/A





USA.gov is the U.S. government's official web portal to all federal, state and local government web resources and services.